This demonstration page uses our WeatherBlox Daily Observations layout. Learn more.

Left ArrowRight Arrow

Hourly Observations for August 1, 2018

Temp ( °F °C ) Dew Point ( °F °C ) Humidity (%) Winds ( mph kmh ) Pressure ( in mb ) Visibility ( mi km ) Precip ( " mm )
12:57 am 00:57 Clear 64 17.8 57 13.9 78 78 SSW 7 11 30.04 1017 10 16 0.00 0.00
1:57 am 01:57 Clear 64 17.8 57 13.9 78 78 SW 7 11 30.04 1017 10 16 0.00 0.00
2:57 am 02:57 Clear 63 17.2 56 13.3 78 78 SW 8 13 30.04 1017 10 16 0.00 0.00
3:57 am 03:57 Clear 63 17.2 55 12.8 76 76 SW 8 13 30.03 1017 10 16 0.00 0.00
4:57 am 04:57 Clear 62 16.7 56 13.3 80 80 SW 7 11 30.03 1017 10 16 0.00 0.00
5:57 am 05:57 Clear 61 16.1 56 13.3 84 84 SSW 9 15 30.02 1017 10 16 0.00 0.00
6:57 am 06:57 Sunny 60 15.6 55 12.8 84 84 SW 6 9 30.03 1017 10 16 0.00 0.00
7:57 am 07:57 Sunny 62 16.7 56 13.3 80 80 SW 7 11 30.03 1017 10 16 0.00 0.00
8:57 am 08:57 Sunny 67 19.4 57 13.9 71 71 WSW 7 11 30.04 1017 10 16 0.00 0.00
9:57 am 09:57 Sunny 72 22.2 58 14.4 61 61 WSW 9 15 30.03 1017 10 16 0.00 0.00
10:57 am 10:57 Sunny 76 24.4 60 15.6 58 58 WSW 9 15 30.02 1017 10 16 0.00 0.00
11:57 am 11:57 Sunny 78 25.6 62 16.7 58 58 WSW 6 9 30.02 1017 10 16 0.00 0.00
12:57 pm 12:57 Sunny 82 27.8 63 17.2 53 53 W 8 13 30.00 1016 10 16 0.00 0.00
1:57 pm 13:57 Sunny 85 29.4 64 17.8 50 50 SW 8 13 29.99 1016 10 16 0.00 0.00
2:57 pm 14:57 Mostly Sunny 86 30 63 17.2 46 46 WSW 12 19 29.98 1015 10 16 0.00 0.00
3:57 pm 15:57 Sunny 87 30.6 63 17.2 45 45 WSW 8 13 29.97 1015 10 16 0.00 0.00
4:57 pm 16:57 Sunny 86 30 64 17.8 48 48 SW 13 20 29.96 1015 10 16 0.00 0.00
5:57 pm 17:57 Sunny 86 30 62 16.7 45 45 SW 7 11 29.95 1014 10 16 0.00 0.00
6:57 pm 18:57 Sunny 86 30 62 16.7 45 45 SW 10 17 29.96 1014 10 16 0.00 0.00
7:57 pm 19:57 Sunny 83 28.3 63 17.2 51 51 SW 9 15 29.95 1014 10 16 0.00 0.00
8:57 pm 20:57 Clear 78 25.6 67 19.4 69 69 SSW 7 11 29.96 1015 10 16 0.00 0.00
9:57 pm 21:57 Clear 76 24.4 67 19.4 74 74 SW 6 9 29.97 1015 10 16 0.00 0.00
10:57 pm 22:57 Clear 73 22.8 65 18.3 76 76 NNE 6 9 29.98 1015 10 16 0.00 0.00
11:57 pm 23:57 Clear 68 20 65 18.3 90 90 ENE 8 13 29.99 1016 10 16 0.00 0.00

Powered by AerisWeather